Location: Nairn
(57.5833°N, 3.8667°W)
Time: 02:22:08
(UTC+00:00)

AQUA - Pass Details

Date: 07 August 2020
Orbit: 700 x 704 km, 98.2° (Epoch: 19 September)

Event Time Altitude Azimuth Distance (km) Brightness Sun altitude
Rises 02:13:05 0° 17° (NNE) 3,109 9.0 -12.5°
Reaches altitude 10° 02:15:23 10° 21° (NNE) 2,186 7.9 -12.4°
Maximum altitude 02:20:09 62° 103° (ESE) 798 4.2 -12.1°
Enters shadow 02:24:19 13° 182° (S) 1,962 5.6 -11.8°
